EW4941 Weather Reports


time (UTC)temp
C
wind
direction
speed
KPH
gust
KPH
rain 1hr
cm
rain 24hr
cm
rain mn
cm
humidity
%
barometer
mb
20260506002706 15 0 0.0 0.0 0.03 0.13 0.13 92 1006.2
20260506002205 15 0 0.0 0.0 0.03 0.13 0.13 92 1006.2
20260506001707 15 0 0.0 0.0 0.03 0.13 0.13 92 1006.1
20260506001435 15 0 0.0 0.0 0.05 0.13 0.13 92 1006.3
20260506000704 15 0 0.0 0.0 0.05 0.13 0.13 92 1006.2
20260506000434 15 0 0.0 0.0 0.08 0.13 0.13 91 1006.1
20260505235703 15 0 0.0 0.0 0.08 0.13 0.13 91 1005.9
20260505235203 15 0 0.0 6.4 0.08 0.13 0.13 91 1005.8
20260505234703 15 0 0.0 6.4 0.10 0.13 0.13 91 1005.7
20260505234202 15 0 0.0 0.0 0.10 0.13 0.13 90 1005.7
20260505233702 15 0 0.0 0.0 0.10 0.10 0.10 89 1006.3
20260505233204 16 0 0.0 0.0 0.10 0.10 0.10 88 1006.3
20260505232702 16 0 0.0 0.0 0.10 0.10 0.10 87 1006.3
20260505232205 16 0 0.0 3.2 0.10 0.10 0.10 87 1006.3
20260505231701 16 0 3.2 12.9 0.10 0.10 0.10 85 1006.2
20260505231201 16 0 6.4 22.5 0.08 0.08 0.08 82 1006.4
20260505230700 17 0 9.7 22.5 0.08 0.08 0.08 81 1006.6
20260505230434 17 0 11.3 22.5 0.05 0.05 0.05 78 1006.3
20260505225701 17 0 11.3 24.1 0.05 0.05 0.05 77 1006.1
20260505225159 18 0 17.7 33.8 0.05 0.05 0.05 73 1005.8
20260505224658 19 0 16.1 33.8 0.03 0.03 0.03 69 1005.8
20260505224157 20 0 14.5 33.8 0.03 0.03 0.03 61 1005.4
20260505223655 20 0 12.9 33.8 0.00 0.00 0.00 54 1005.4
20260505223158 20 0 8.0 24.1 0.00 0.00 0.00 53 1004.6
20260505222654 20 0 9.7 24.1 0.00 0.00 0.00 53 1003.5
20260505222153 21 0 12.9 32.2 0.00 0.00 0.00 53 1003.2
20260505221654 21 0 12.9 32.2 0.00 0.00 0.00 52 1003.1
20260505221151 21 0 11.3 29.0 0.00 0.00 0.00 52 1003.0
20260505220651 21 0 9.7 24.1 0.00 0.00 0.00 51 1002.8
20260505220149 21 0 11.3 27.4 0.00 0.00 0.00 51 1002.8
20260505215649 21 0 12.9 32.2 0.00 0.00 0.00 51 1002.9
20260505215423 22 0 11.3 32.2 0.00 0.00 0.00 51 1002.7
20260505214652 22 0 11.3 27.4 0.00 0.00 0.00 50 1002.6
20260505214149 22 0 11.3 29.0 0.00 0.00 0.00 50 1002.6
20260505213647 22 0 11.3 29.0 0.00 0.00 0.00 49 1002.4
20260505213147 22 0 11.3 27.4 0.00 0.00 0.00 50 1002.3
20260505212920 22 0 12.9 32.2 0.00 0.00 0.00 49 1002.3
20260505212148 22 0 12.9 32.2 0.00 0.00 0.00 50 1002.1
20260505211647 23 0 11.3 32.2 0.00 0.00 0.00 49 1002.1
20260505211147 23 0 11.3 32.2 0.00 0.00 0.00 50 1002.3
20260505210649 22 0 11.3 32.2 0.00 0.00 0.00 49 1001.9
20260505210147 22 0 11.3 24.1 0.00 0.00 0.00 50 1002.0
20260505205647 23 0 11.3 33.8 0.00 0.00 0.00 48 1002.3
20260505205145 23 0 12.9 37.0 0.00 0.00 0.00 49 1002.3
20260505204648 23 0 12.9 37.0 0.00 0.00 0.00 49 1002.4
20260505204145 23 0 12.9 25.7 0.00 0.00 0.00 49 1002.3
20260505203647 23 0 11.3 25.7 0.00 0.00 0.00 49 1002.2
20260505203148 23 0 11.3 25.7 0.00 0.00 0.00 49 1002.4
20260505202647 23 0 11.3 27.4 0.00 0.00 0.00 48 1002.4
20260505202144 23 0 12.9 27.4 0.00 0.00 0.00 49 1002.4
20260505201643 23 0 12.9 27.4 0.00 0.00 0.00 47 1002.4
20260505201144 23 0 12.9 32.2 0.00 0.00 0.00 47 1002.5
20260505200914 23 0 14.5 32.2 0.00 0.00 0.00 47 1002.6
20260505200141 23 0 12.9 32.2 0.00 0.00 0.00 47 1002.6
20260505195915 24 0 12.9 30.6 0.00 0.00 0.00 48 1002.7
20260505195141 24 0 12.9 30.6 0.00 0.00 0.00 48 1002.7
20260505194641 24 0 14.5 29.0 0.00 0.00 0.00 46 1002.7
20260505194141 24 0 11.3 29.0 0.00 0.00 0.00 48 1002.8
20260505193643 24 0 11.3 25.7 0.00 0.00 0.00 46 1002.7
20260505193142 24 0 11.3 32.2 0.00 0.00 0.00 48 1002.7
20260505192916 24 0 11.3 32.2 0.00 0.00 0.00 47 1002.8
20260505192140 24 0 9.7 27.4 0.00 0.00 0.00 48 1002.8
20260505191640 24 0 9.7 27.4 0.00 0.00 0.00 48 1002.8
20260505191413 24 0 12.9 32.2 0.00 0.00 0.00 48 1003.0
20260505190908 23 0 14.5 32.2 0.00 0.00 0.00 49 1003.1
20260505190138 23 0 12.9 29.0 0.00 0.00 0.00 48 1003.2
20260505185637 23 0 12.9 27.4 0.00 0.00 0.00 49 1003.3
20260505185137 24 0 12.9 27.4 0.00 0.00 0.00 48 1003.3
20260505184908 25 0 11.3 25.7 0.00 0.00 0.00 47 1003.3
20260505184138 25 0 12.9 25.7 0.00 0.00 0.00 46 1003.5
20260505183638 25 0 11.3 27.4 0.00 0.00 0.00 45 1003.5
20260505183138 25 0 9.7 27.4 0.00 0.00 0.00 46 1003.7
20260505182638 25 0 9.7 24.1 0.00 0.00 0.00 46 1003.6
20260505182138 25 0 9.7 27.4 0.00 0.00 0.00 45 1003.8
20260505181637 25 0 8.0 27.4 0.00 0.00 0.00 45 1003.6
20260505181406 25 0 9.7 25.7 0.00 0.00 0.00 46 1003.6
20260505180634 25 0 11.3 25.7 0.00 0.00 0.00 45 1003.7
20260505180404 25 0 9.7 27.4 0.00 0.00 0.00 45 1003.9
20260505175635 26 0 8.0 27.4 0.00 0.00 0.00 44 1003.8
20260505175132 26 0 9.7 29.0 0.00 0.00 0.00 40 1003.9
20260505174631 25 0 11.3 29.0 0.00 0.00 0.00 44 1004.2
20260505174132 25 0 11.3 29.0 0.00 0.00 0.00 43 1004.1
20260505173630 25 0 11.3 29.0 0.00 0.00 0.00 45 1004.3
20260505173128 25 0 9.7 29.0 0.00 0.00 0.00 46 1004.3
20260505172626 25 0 11.3 29.0 0.00 0.00 0.00 43 1004.3
20260505172359 25 0 9.7 22.5 0.00 0.00 0.00 45 1004.5
20260505171856 25 0 8.0 19.3 0.00 0.00 0.00 44 1004.6
20260505171126 25 0 8.0 24.1 0.00 0.03 0.00 46 1004.5
20260505170625 24 0 9.7 24.1 0.00 0.03 0.00 45 1004.7
20260505170123 24 0 11.3 27.4 0.00 0.03 0.00 45 1004.8
20260505165624 24 0 9.7 27.4 0.00 0.03 0.00 45 1005.0
20260505165129 23 0 9.7 24.1 0.00 0.03 0.00 45 1005.1
20260505165123 24 0 9.7 22.5 0.00 0.03 0.00 46 1005.2
20260505164122 23 0 11.3 24.1 0.00 0.03 0.00 46 1005.1
20260505163625 23 0 9.7 29.0 0.00 0.03 0.00 47 1005.2
20260505163123 23 0 8.0 29.0 0.00 0.03 0.00 47 1005.1
20260505162620 22 0 8.0 27.4 0.00 0.03 0.00 49 1005.5
20260505162121 23 0 9.7 27.4 0.00 0.03 0.00 46 1005.6
20260505161621 23 0 11.3 27.4 0.00 0.03 0.00 46 1005.7
20260505161120 23 0 9.7 27.4 0.00 0.03 0.00 45 1005.6
20260505160851 23 0 8.0 20.9 0.00 0.03 0.00 45 1005.8
20260505160120 23 0 8.0 22.5 0.00 0.03 0.00 47 1006.0
20260505153121 22 0 8.0 29.0 0.00 0.03 0.00 47 1006.2
20260505152623 22 0 8.0 22.5 0.00 0.03 0.00 47 1006.2
20260505152120 22 0 8.0 20.9 0.00 0.03 0.00 46 1006.3
20260505151620 22 0 6.4 20.9 0.00 0.03 0.00 49 1006.4
20260505151119 21 0 6.4 16.1 0.00 0.03 0.00 52 1006.6
20260505150617 20 0 6.4 19.3 0.00 0.03 0.00 49 1006.7
20260505150116 20 0 6.4 20.9 0.00 0.03 0.00 50 1006.7
20260505140610 19 0 8.0 19.3 0.00 0.03 0.00 53 1006.5
20260505140340 19 0 8.0 19.3 0.00 0.03 0.00 53 1006.4
20260505124606 15 0 3.2 14.5 0.00 0.03 0.00 63 1007.3
20260505124107 15 0 4.8 17.7 0.00 0.03 0.00 63 1007.4
20260505123604 14 0 4.8 17.7 0.00 0.03 0.00 66 1007.3
20260505123105 14 0 3.2 16.1 0.00 0.03 0.00 65 1007.3
20260505122604 14 0 4.8 14.5 0.00 0.03 0.00 63 1007.3
20260505122103 14 0 4.8 16.1 0.00 0.03 0.00 64 1007.3
20260505121605 14 0 4.8 16.1 0.00 0.03 0.00 62 1007.3
20260505121106 14 0 4.8 14.5 0.00 0.03 0.00 63 1007.4
20260505120603 14 0 4.8 16.1 0.00 0.03 0.00 62 1007.5
20260505115602 13 0 6.4 22.5 0.00 0.03 0.00 65 1007.4
20260505115103 13 0 6.4 22.5 0.00 0.03 0.00 64 1007.4
20260505114600 13 0 4.8 19.3 0.00 0.03 0.00 64 1007.6
20260505114333 13 0 3.2 17.7 0.00 0.03 0.00 66 1007.6
20260505113601 13 0 3.2 14.5 0.00 0.03 0.00 67 1007.6
20260505113101 13 0 4.8 9.7 0.00 0.03 0.00 68 1007.6
20260505112603 13 0 3.2 9.7 0.00 0.03 0.00 69 1007.5
20260505112102 12 0 1.6 6.4 0.00 0.03 0.00 70 1007.5
20260505111600 12 0 1.6 6.4 0.00 0.03 0.00 71 1007.5
20260505111101 11 0 1.6 4.8 0.00 0.03 0.00 72 1007.4
20260505110601 11 0 0.0 4.8 0.00 0.03 0.00 73 1007.4
20260505102100 10 0 0.0 4.8 0.00 0.03 0.00 72 1007.5
20260505101557 10 0 0.0 1.6 0.00 0.03 0.00 72 1007.5
20260505101059 10 0 0.0 0.0 0.00 0.03 0.00 73 1007.4
20260505100558 10 0 0.0 0.0 0.00 0.03 0.00 73 1007.4
20260505100059 10 0 0.0 0.0 0.00 0.03 0.00 73 1007.4
20260505095558 10 0 0.0 0.0 0.00 0.03 0.00 72 1007.2
20260505095057 10 0 0.0 0.0 0.00 0.03 0.00 72 1007.3
20260505094601 10 0 0.0 4.8 0.00 0.03 0.00 72 1007.4
20260505094057 10 0 1.6 6.4 0.00 0.03 0.00 71 1007.4
20260505093556 10 0 3.2 6.4 0.00 0.03 0.00 71 1007.3
20260505093055 10 0 3.2 6.4 0.00 0.03 0.00 71 1007.3
20260505092555 11 0 1.6 6.4 0.00 0.03 0.00 71 1007.3
20260505092053 11 0 3.2 6.4 0.00 0.03 0.00 70 1007.3
20260505091555 11 0 3.2 6.4 0.00 0.03 0.00 70 1007.3
20260505091053 11 0 3.2 8.0 0.00 0.03 0.00 70 1007.3
20260505090553 11 0 3.2 8.0 0.00 0.03 0.00 70 1007.4
20260505090053 11 0 3.2 8.0 0.00 0.03 0.00 70 1007.3
20260505085556 11 0 3.2 8.0 0.00 0.03 0.00 70 1007.4
20260505085055 11 0 3.2 8.0 0.00 0.03 0.00 70 1007.4
20260505084555 11 0 3.2 8.0 0.00 0.03 0.00 70 1007.4
20260505084054 11 0 3.2 9.7 0.00 0.03 0.00 70 1007.5
20260505083554 11 0 3.2 9.7 0.00 0.03 0.00 70 1007.5
20260505083326 11 0 3.2 16.1 0.00 0.03 0.00 70 1007.5
20260505082553 11 0 4.8 16.1 0.00 0.03 0.00 71 1007.5
20260505082325 10 0 3.2 12.9 0.00 0.03 0.00 71 1007.5
20260505081555 10 0 3.2 8.0 0.00 0.03 0.00 72 1007.5
20260505081051 10 0 1.6 8.0 0.00 0.03 0.00 72 1007.6
20260505080551 10 0 1.6 6.4 0.00 0.03 0.00 72 1007.5
20260505080050 10 0 1.6 6.4 0.00 0.03 0.00 72 1007.5
20260505075817 10 0 1.6 4.8 0.00 0.03 0.00 72 1007.5
20260505075317 10 0 0.0 3.2 0.00 0.03 0.00 71 1007.6
20260505074545 10 0 0.0 3.2 0.00 0.03 0.00 71 1007.5
20260505074041 10 0 1.6 4.8 0.00 0.03 0.00 71 1007.6
20260505073540 10 0 1.6 4.8 0.00 0.03 0.00 71 1007.6
20260505073037 10 0 1.6 6.4 0.00 0.03 0.00 71 1007.5
20260505072537 10 0 1.6 8.0 0.00 0.03 0.00 71 1007.5
20260505072037 10 0 3.2 8.0 0.00 0.03 0.00 72 1007.5
20260505071533 10 0 1.6 6.4 0.00 0.03 0.00 72 1007.5
20260505071035 10 0 1.6 6.4 0.00 0.03 0.00 72 1007.5
20260505070534 10 0 1.6 6.4 0.00 0.03 0.00 72 1007.5
20260505070305 10 0 1.6 6.4 0.00 0.03 0.00 72 1007.5
20260505065532 10 0 1.6 6.4 0.00 0.03 0.00 72 1007.6
20260505065028 10 0 1.6 6.4 0.00 0.03 0.00 72 1007.6
20260505064529 10 0 0.0 4.8 0.00 0.03 0.00 72 1007.6
20260505064027 10 0 0.0 1.6 0.00 0.03 0.00 73 1007.5
20260505063801 10 0 0.0 0.0 0.00 0.03 0.00 73 1007.5
20260505063027 10 0 0.0 0.0 0.00 0.03 0.00 73 1007.5
20260505062528 10 0 0.0 1.6 0.00 0.03 0.00 73 1007.5
20260505062027 10 0 0.0 3.2 0.00 0.03 0.00 72 1007.5
20260505061525 10 0 0.0 4.8 0.00 0.03 0.00 72 1007.5
20260505061024 10 0 1.6 6.4 0.00 0.03 0.00 73 1007.4
20260505060754 9 0 1.6 6.4 0.00 0.03 0.00 73 1007.4
20260505060257 9 0 0.0 8.0 0.00 0.03 0.00 73 1007.4
20260505055523 9 0 1.6 8.0 0.00 0.03 0.00 73 1007.4
20260505055023 9 0 0.0 3.2 0.00 0.03 0.00 73 1007.5
20260505054524 9 0 0.0 3.2 0.00 0.03 0.00 73 1007.5
20260505054024 9 0 1.6 6.4 0.00 0.03 0.00 73 1007.5
20260505053523 9 0 1.6 6.4 0.00 0.03 0.00 74 1007.5
20260505053024 9 0 1.6 6.4 0.00 0.03 0.00 75 1007.5
20260505052522 9 0 0.0 6.4 0.00 0.03 0.00 75 1007.6
20260505052022 9 0 0.0 3.2 0.00 0.03 0.00 76 1007.7
20260505051522 9 0 1.6 4.8 0.00 0.03 0.00 76 1007.6
20260505051021 8 0 1.6 6.4 0.00 0.03 0.00 77 1007.6
20260505050521 8 0 1.6 6.4 0.00 0.03 0.00 78 1007.5
20260505041746 8 0 0.0 0.0 0.00 0.03 0.00 80 1007.2
20260505041012 8 0 0.0 0.0 0.00 0.03 0.00 78 1007.2
20260505040511 8 0 0.0 0.0 0.00 0.03 0.00 78 1007.2
20260505040012 9 0 0.0 0.0 0.00 0.03 0.00 77 1006.9
20260505035508 9 0 0.0 0.0 0.00 0.03 0.03 76 1006.9
20260505035009 10 0 0.0 0.0 0.00 0.03 0.03 76 1006.8
20260505034509 10 0 0.0 0.0 0.00 0.03 0.03 76 1006.7
20260505034241 10 0 0.0 4.8 0.00 0.03 0.03 76 1006.7
20260505033508 10 0 0.0 4.8 0.00 0.03 0.03 76 1006.7
20260505033010 10 0 0.0 3.2 0.00 0.03 0.03 76 1006.7
20260505032510 9 0 1.6 4.8 0.00 0.03 0.03 76 1006.6
20260505032010 10 0 1.6 6.4 0.00 0.03 0.03 75 1006.6
20260505031508 10 0 1.6 6.4 0.00 0.03 0.03 75 1006.5
20260505031013 10 0 1.6 4.8 0.00 0.03 0.03 73 1006.7
20260505031009 10 0 1.6 6.4 0.00 0.03 0.03 74 1006.7
20260505030006 10 0 0.0 4.8 0.00 0.03 0.03 73 1006.7
20260505025508 10 0 0.0 0.0 0.00 0.03 0.03 72 1006.7
20260505025005 10 0 0.0 0.0 0.00 0.03 0.03 72 1006.7
20260505024502 11 0 0.0 0.0 0.00 0.03 0.03 72 1006.8
20260505024001 11 0 0.0 0.0 0.00 0.03 0.03 71 1006.8
20260505023731 11 0 0.0 0.0 0.00 0.03 0.03 70 1006.7
20260505023001 11 0 0.0 0.0 0.00 0.03 0.03 70 1006.8
20260505022459 11 0 0.0 0.0 0.00 0.03 0.03 70 1006.8
20260505021957 11 0 0.0 0.0 0.00 0.03 0.03 70 1006.8
20260505021458 11 0 0.0 0.0 0.00 0.03 0.03 70 1006.8
20260505020956 11 0 0.0 0.0 0.00 0.03 0.03 70 1006.8
20260505020456 11 0 0.0 0.0 0.00 0.03 0.03 69 1006.7
20260505015956 11 0 0.0 0.0 0.00 0.03 0.03 69 1006.7
20260505015726 11 0 0.0 0.0 0.00 0.03 0.03 69 1006.7
20260505015224 11 0 0.0 0.0 0.00 0.03 0.03 69 1006.6
20260505014453 11 0 0.0 0.0 0.00 0.03 0.03 68 1006.6
20260505013953 11 0 0.0 0.0 0.00 0.03 0.03 68 1006.6
20260505013452 12 0 0.0 0.0 0.00 0.03 0.03 68 1006.5
20260505012955 12 0 0.0 0.0 0.00 0.03 0.03 68 1006.5
20260505012452 12 0 0.0 0.0 0.00 0.03 0.03 68 1006.4
20260505011952 12 0 0.0 0.0 0.00 0.03 0.03 68 1006.4
20260505011452 12 0 0.0 3.2 0.00 0.03 0.03 67 1006.4
20260505010953 12 0 1.6 4.8 0.00 0.03 0.03 67 1006.3
20260505010452 12 0 1.6 4.8 0.00 0.03 0.03 67 1006.3
20260505005952 12 0 0.0 3.2 0.00 0.03 0.03 67 1006.3
20260505005453 12 0 0.0 4.8 0.00 0.03 0.03 66 1006.2
20260505004952 12 0 0.0 4.8 0.00 0.03 0.03 65 1006.2
20260505004452 12 0 0.0 0.0 0.00 0.03 0.03 65 1006.1
20260505003950 12 0 0.0 1.6 0.00 0.03 0.03 63 1006.0
20260505003453 13 0 1.6 3.2 0.00 0.03 0.03 63 1006.0